Home > Weather > Arnstadt > Past weeks

Flag for Germany Past Weather in Arnstadt, Thuringia, Germany — Yesterday and Last 2 Weeks

Now
75 °F

Scattered clouds.


Feels Like: 77 °F
Forecast: 57 / 70 °F
Wind: 7 mph from Northwest

Location: Erfurt-Bindersleben

Current Time: Jun 25, 2016 at 2:23:32 PM

Latest Report: Jun 25, 2016 at 1:50 PM


Visibility: N/A

Pressure: 29.89 "Hg

Humidity: 74%

Dew Point: 66 °F

Location of ArnstadtLocation

Past Weather in Arnstadt — Graph

°F

Arnstadt Temperature Yesterday

Maximum temperature yesterday: 91 °F (at 3:50 PM)
Minimum temperature yesterday: 66 °F (at 10:20 PM)
Average temperature yesterday: 76 °F

High & Low Weather Summary for the Past Weeks

 TemperatureHumidityPressure
High91 °F (Jun 24, 3:50 PM)100% (Jun 12, 5:20 PM)30.24 "Hg (Jun 12, 5:20 PM)
Low46 °F (Jun 20, 5:20 AM)31% (Jun 23, 4:20 PM)29.50 "Hg (Jun 14, 5:20 PM)
Average63 °F75%29.90 "Hg
* Reported Jun 10 1:20 PM — Jun 25 1:20 PM, Arnstadt, Weather by CustomWeather, © 2016

Note: Actual official high and low records may vary slightly from our data, if they occured in-between our weather recording intervals... More about our weather records

Advertising

Arnstadt Weather History for the Previous 24 Hours

Scroll right to see more
 ConditionsComfort  
Time TempWeatherWind HumidityBarometerVisibility
1:20 PM
Sat, Jun 25
75 °FScattered clouds.6 mph74%29.89 "HgN/A
12:50 PM73 °FPartly sunny.3 mph74%29.89 "HgN/A
12:20 PM73 °FSprinkles. Partly sunny.5 mph78%29.89 "HgN/A
11:50 AM73 °FScattered showers. Partly sunny.5 mph69%29.92 "HgN/A
11:20 AM72 °FPartly sunny.6 mph78%29.92 "HgN/A
10:50 AM72 °FPartly sunny.5 mph78%29.92 "HgN/A
10:20 AM68 °FPartly sunny.6 mph88%29.92 "HgN/A
9:50 AM70 °FBroken clouds.2 mph83%29.92 "HgN/A
9:20 AM70 °FBroken clouds.2 mph83%29.92 "HgN/A
8:50 AM68 °FBroken clouds.3 mph88%29.92 "HgN/A
8:20 AM68 °FBroken clouds.1 mph88%29.92 "HgN/A
7:50 AM66 °FPartly sunny.5 mph94%29.92 "HgN/A
7:20 AM64 °FFog.5 mph100%29.92 "Hg3 mi
6:50 AM64 °FFog.9 mph100%29.95 "Hg0 mi
6:20 AM63 °FMild.9 mph100%29.95 "Hg1 mi
5:50 AM63 °FPassing clouds.6 mph100%29.95 "HgN/A
5:20 AM63 °FClear.5 mph100%29.95 "Hg10 mi
4:50 AM61 °FClear.5 mph100%29.95 "Hg10 mi
4:20 AM61 °FClear.3 mph100%29.95 "Hg10 mi
3:50 AM63 °FClear.6 mph94%29.95 "Hg10 mi
3:20 AM63 °FClear.3 mph100%29.98 "Hg10 mi
2:50 AM64 °FClear.2 mph94%29.98 "Hg10 mi
2:20 AM64 °FClear.2 mph94%30.01 "Hg10 mi
1:50 AM64 °FClear.2 mph94%30.01 "Hg10 mi
1:20 AM64 °FClear.7 mph94%30.04 "Hg10 mi
12:50 AM64 °FPassing clouds.3 mph94%30.01 "HgN/A
12:20 AM64 °FPassing clouds.5 mph88%30.01 "HgN/A
11:50 PM
Fri, Jun 24
66 °FClear.6 mph88%30.01 "Hg10 mi
11:20 PM66 °FClear.5 mph88%30.01 "Hg10 mi
10:50 PM68 °FClear.5 mph78%30.04 "Hg10 mi
10:20 PM66 °FSunny.8 mph88%30.04 "Hg10 mi
9:50 PM68 °FSunny.8 mph83%30.04 "Hg10 mi
9:20 PM70 °FSunny.8 mph83%30.04 "Hg10 mi
8:50 PM72 °FSunny.7 mph78%30.04 "Hg10 mi
8:20 PM72 °FSunny.7 mph73%30.04 "Hg10 mi
7:50 PM73 °FPassing clouds.3 mph69%30.04 "HgN/A
7:20 PM72 °FSunny.3 mph78%30.04 "Hg10 mi
6:50 PM70 °FPassing clouds.7 mph78%30.04 "HgN/A
6:20 PM70 °FPassing clouds.15 mph78%30.04 "HgN/A
5:50 PM75 °FScattered clouds.25 mph65%30.04 "HgN/A
5:20 PM86 °FPassing clouds.5 mph49%29.98 "HgN/A
4:50 PM91 °FPassing clouds.8 mph34%29.98 "HgN/A
4:20 PM91 °FSunny.8 mph38%29.98 "Hg10 mi
3:50 PM91 °FPassing clouds.8 mph36%29.98 "HgN/A
3:20 PM90 °FSunny.7 mph46%30.01 "Hg10 mi
2:50 PM90 °FPassing clouds.10 mph49%30.01 "HgN/A
2:20 PM88 °FPassing clouds.10 mph52%30.04 "HgN/A
Weather by CustomWeather, © 2016

See weather overviewHow to use our weather pages